| time (UTC) | temp F | wind direction | speed knots | gust knots | rain 1hr in | rain 24hr in | rain mn in | humidity % | barometer mb |
| 20260505110934 | 71 | 68 | 0.9 | 0.9 | 0.00 | 0.00 | 0.00 | 88 | 1015.7 |
| 20260505101929 | 71 | 45 | 0.9 | 0.9 | 0.00 | 0.00 | 0.00 | 89 | 1015.4 |
| 20260505100928 | 71 | 45 | 0.9 | 0.9 | 0.00 | 0.00 | 0.00 | 88 | 1015.5 |
| 20260505095929 | 71 | 0.0 | 0.0 | 0.00 | 0.00 | 0.00 | 88 | 1015.3 | |
| 20260505094929 | 71 | 0.0 | 0.0 | 0.00 | 0.00 | 0.00 | 88 | 1015.4 | |
| 20260505093930 | 71 | 0.0 | 0.0 | 0.00 | 0.00 | 0.00 | 88 | 1015.3 | |
| 20260505092929 | 72 | 0.0 | 0.0 | 0.00 | 0.00 | 0.00 | 87 | 1015.1 | |
| 20260505091929 | 72 | 0.0 | 0.0 | 0.00 | 0.00 | 0.00 | 87 | 1015.0 | |
| 20260505090950 | 72 | 0.0 | 0.9 | 0.00 | 0.00 | 0.00 | 86 | 1015.0 | |
| 20260505085929 | 72 | 0.0 | 0.0 | 0.00 | 0.00 | 0.00 | 86 | 1014.7 | |
| 20260505084934 | 72 | 0.0 | 0.0 | 0.00 | 0.00 | 0.00 | 86 | 1014.4 | |
| 20260505083950 | 73 | 0.0 | 0.0 | 0.00 | 0.00 | 0.00 | 86 | 1014.4 | |
| 20260505082949 | 73 | 0.0 | 0.0 | 0.00 | 0.00 | 0.00 | 85 | 1014.1 | |
| 20260505081930 | 73 | 0.0 | 0.9 | 0.00 | 0.00 | 0.00 | 85 | 1014.3 | |
| 20260505080934 | 73 | 0.0 | 0.9 | 0.00 | 0.00 | 0.00 | 85 | 1014.1 | |
| 20260505075949 | 73 | 0.0 | 0.0 | 0.00 | 0.00 | 0.00 | 85 | 1014.2 | |
| 20260505074934 | 73 | 0.0 | 0.9 | 0.00 | 0.00 | 0.00 | 84 | 1014.0 | |
| 20260505073928 | 74 | 0.0 | 0.9 | 0.00 | 0.00 | 0.00 | 83 | 1013.7 | |
| 20260505072930 | 74 | 0.0 | 0.9 | 0.00 | 0.00 | 0.00 | 83 | 1013.6 | |
| 20260505071929 | 74 | 0.0 | 0.9 | 0.00 | 0.00 | 0.00 | 83 | 1013.6 | |
| 20260505070928 | 74 | 45 | 0.9 | 0.9 | 0.00 | 0.00 | 0.00 | 82 | 1013.6 |
| 20260505065929 | 75 | 68 | 0.9 | 1.7 | 0.00 | 0.00 | 0.00 | 82 | 1013.3 |
| 20260505064929 | 75 | 45 | 1.7 | 2.6 | 0.00 | 0.00 | 0.00 | 81 | 1013.4 |
| 20260505063929 | 75 | 0.0 | 0.9 | 0.00 | 0.00 | 0.00 | 81 | 1013.4 | |
| 20260505062928 | 75 | 45 | 0.9 | 0.9 | 0.00 | 0.00 | 0.00 | 80 | 1013.2 |
| 20260505061928 | 75 | 45 | 2.6 | 3.5 | 0.00 | 0.00 | 0.00 | 79 | 1013.3 |
| 20260505060928 | 76 | 45 | 2.6 | 4.3 | 0.00 | 0.00 | 0.00 | 79 | 1013.2 |
| 20260505055929 | 76 | 45 | 1.7 | 2.6 | 0.00 | 0.00 | 0.00 | 78 | 1013.2 |
| 20260505054929 | 76 | 68 | 2.6 | 4.3 | 0.00 | 0.00 | 0.00 | 79 | 1013.1 |
| 20260505053927 | 76 | 68 | 1.7 | 3.5 | 0.00 | 0.00 | 0.00 | 78 | 1013.1 |
| 20260505052929 | 76 | 68 | 1.7 | 2.6 | 0.00 | 0.00 | 0.00 | 79 | 1013.2 |
| 20260505051928 | 77 | 68 | 2.6 | 6.1 | 0.00 | 0.00 | 0.00 | 78 | 1013.2 |
| 20260505050929 | 77 | 68 | 1.7 | 2.6 | 0.00 | 0.00 | 0.00 | 78 | 1013.0 |
| 20260505040949 | 79 | 45 | 2.6 | 3.5 | 0.00 | 0.00 | 0.00 | 76 | 1012.7 |
| 20260505035927 | 79 | 90 | 2.6 | 3.5 | 0.00 | 0.00 | 0.00 | 75 | 1012.5 |
| 20260505034928 | 79 | 68 | 2.6 | 3.5 | 0.00 | 0.00 | 0.00 | 74 | 1012.6 |
| 20260505033928 | 79 | 45 | 3.5 | 7.0 | 0.00 | 0.00 | 0.00 | 73 | 1012.6 |
| 20260505032929 | 79 | 45 | 1.7 | 2.6 | 0.00 | 0.00 | 0.00 | 74 | 1012.7 |
| 20260505031930 | 78 | 68 | 2.6 | 3.5 | 0.00 | 0.00 | 0.00 | 74 | 1012.5 |
| 20260505030930 | 78 | 23 | 4.3 | 6.1 | 0.00 | 0.00 | 0.00 | 75 | 1012.7 |
| 20260505025953 | 78 | 90 | 1.7 | 2.6 | 0.00 | 0.00 | 0.00 | 74 | 1012.9 |
| 20260505024935 | 78 | 90 | 3.5 | 5.2 | 0.00 | 0.00 | 0.00 | 75 | 1013.2 |
| 20260505023950 | 79 | 68 | 3.5 | 6.1 | 0.00 | 0.00 | 0.00 | 74 | 1013.2 |
| 20260505022930 | 79 | 68 | 3.5 | 4.3 | 0.00 | 0.00 | 0.00 | 73 | 1013.2 |
| 20260505021928 | 80 | 90 | 3.5 | 5.2 | 0.00 | 0.00 | 0.00 | 73 | 1013.3 |
| 20260505020936 | 80 | 68 | 5.2 | 7.0 | 0.00 | 0.00 | 0.00 | 71 | 1013.5 |
| 20260505015930 | 81 | 45 | 0.9 | 1.7 | 0.00 | 0.00 | 0.00 | 70 | 1013.6 |
| 20260505014931 | 80 | 23 | 0.9 | 1.7 | 0.00 | 0.00 | 0.00 | 71 | 1013.7 |
| 20260505013930 | 79 | 45 | 2.6 | 5.2 | 0.00 | 0.00 | 0.00 | 72 | 1013.8 |
| 20260505012930 | 79 | 45 | 1.7 | 2.6 | 0.00 | 0.00 | 0.00 | 72 | 1014.2 |
| 20260505011931 | 79 | 45 | 1.7 | 3.5 | 0.00 | 0.00 | 0.00 | 72 | 1014.5 |
| 20260505010930 | 79 | 45 | 1.7 | 3.5 | 0.00 | 0.00 | 0.00 | 71 | 1014.7 |
| 20260505005930 | 79 | 45 | 3.5 | 5.2 | 0.00 | 0.00 | 0.00 | 70 | 1014.8 |
| 20260505004949 | 79 | 68 | 1.7 | 2.6 | 0.00 | 0.00 | 0.00 | 72 | 1014.8 |
| 20260505003930 | 78 | 68 | 2.6 | 4.3 | 0.00 | 0.00 | 0.00 | 72 | 1014.8 |
| 20260505002930 | 79 | 45 | 3.5 | 5.2 | 0.00 | 0.00 | 0.00 | 71 | 1014.9 |
| 20260505001930 | 78 | 68 | 1.7 | 3.5 | 0.00 | 0.00 | 0.00 | 71 | 1015.1 |
| 20260505000930 | 78 | 23 | 1.7 | 1.7 | 0.00 | 0.00 | 0.00 | 73 | 1015.2 |
| 20260504235949 | 78 | 0 | 1.7 | 3.5 | 0.00 | 0.00 | 0.00 | 72 | 1015.1 |
| 20260504234931 | 78 | 0 | 1.7 | 2.6 | 0.00 | 0.01 | 0.00 | 74 | 1015.1 |
| 20260504233932 | 77 | 0 | 2.6 | 4.3 | 0.00 | 0.01 | 0.00 | 73 | 1015.2 |
| 20260504232935 | 77 | 0 | 2.6 | 3.5 | 0.00 | 0.01 | 0.00 | 75 | 1015.3 |
| 20260504231930 | 78 | 180 | 1.7 | 2.6 | 0.00 | 0.01 | 0.00 | 75 | 1015.4 |
| 20260504230930 | 77 | 180 | 0.9 | 1.7 | 0.00 | 0.01 | 0.00 | 75 | 1015.6 |
| 20260504225949 | 76 | 203 | 0.9 | 1.7 | 0.00 | 0.01 | 0.00 | 77 | 1015.6 |
| 20260504224930 | 75 | 203 | 0.9 | 1.7 | 0.00 | 0.01 | 0.00 | 79 | 1015.5 |
| 20260504223940 | 75 | 203 | 1.7 | 3.5 | 0.00 | 0.01 | 0.00 | 80 | 1015.5 |
| 20260504222930 | 75 | 203 | 1.7 | 2.6 | 0.00 | 0.01 | 0.00 | 80 | 1015.5 |
| 20260504221929 | 74 | 0.0 | 0.9 | 0.00 | 0.01 | 0.00 | 83 | 1015.5 | |
| 20260504220931 | 72 | 203 | 0.9 | 1.7 | 0.00 | 0.01 | 0.00 | 86 | 1015.4 |
| 20260504215929 | 71 | 203 | 1.7 | 2.6 | 0.00 | 0.01 | 0.00 | 88 | 1015.4 |
| 20260504214932 | 70 | 203 | 0.9 | 0.9 | 0.00 | 0.01 | 0.00 | 91 | 1015.3 |
| 20260504213929 | 69 | 180 | 1.7 | 2.6 | 0.00 | 0.01 | 0.00 | 92 | 1015.4 |
| 20260504212930 | 68 | 180 | 0.9 | 1.7 | 0.00 | 0.01 | 0.00 | 93 | 1015.4 |
| 20260504211930 | 68 | 0.0 | 0.9 | 0.00 | 0.01 | 0.00 | 94 | 1015.3 | |
| 20260504210934 | 67 | 0.0 | 0.0 | 0.00 | 0.01 | 0.00 | 94 | 1015.1 | |
| 20260504205929 | 66 | 0.0 | 0.0 | 0.00 | 0.01 | 0.00 | 94 | 1015.0 | |
| 20260504204930 | 66 | 0.0 | 0.9 | 0.00 | 0.01 | 0.00 | 94 | 1015.0 | |
| 20260504203929 | 65 | 0.0 | 0.9 | 0.00 | 0.01 | 0.00 | 94 | 1014.8 | |
| 20260504202934 | 65 | 0.0 | 0.0 | 0.00 | 0.01 | 0.00 | 94 | 1014.8 | |
| 20260504201930 | 66 | 0.0 | 0.9 | 0.00 | 0.01 | 0.00 | 94 | 1014.7 | |
| 20260504200929 | 66 | 0.0 | 0.9 | 0.00 | 0.01 | 0.00 | 93 | 1014.6 | |
| 20260504195949 | 66 | 180 | 0.9 | 0.9 | 0.00 | 0.01 | 0.00 | 94 | 1014.4 |
| 20260504194930 | 66 | 180 | 0.9 | 1.7 | 0.00 | 0.01 | 0.00 | 93 | 1014.4 |
| 20260504193930 | 66 | 0.0 | 0.0 | 0.00 | 0.01 | 0.00 | 93 | 1014.3 | |
| 20260504192932 | 66 | 0.0 | 0.9 | 0.00 | 0.01 | 0.00 | 93 | 1014.3 | |
| 20260504191928 | 65 | 180 | 0.9 | 0.9 | 0.00 | 0.01 | 0.00 | 93 | 1014.1 |
| 20260504190928 | 65 | 0.0 | 0.0 | 0.00 | 0.01 | 0.00 | 93 | 1014.0 | |
| 20260504185929 | 65 | 0.0 | 0.0 | 0.00 | 0.01 | 0.00 | 93 | 1014.0 | |
| 20260504184949 | 66 | 0.0 | 0.9 | 0.00 | 0.01 | 0.00 | 93 | 1013.9 | |
| 20260504183929 | 66 | 0.0 | 0.0 | 0.00 | 0.01 | 0.00 | 93 | 1013.9 | |
| 20260504182930 | 66 | 0.0 | 0.0 | 0.00 | 0.01 | 0.00 | 93 | 1013.9 | |
| 20260504181928 | 66 | 0.0 | 0.0 | 0.00 | 0.01 | 0.00 | 92 | 1013.9 | |
| 20260504180930 | 67 | 0.0 | 0.0 | 0.00 | 0.01 | 0.00 | 92 | 1013.8 | |
| 20260504175930 | 67 | 180 | 0.9 | 0.9 | 0.00 | 0.01 | 0.00 | 92 | 1013.9 |
| 20260504174948 | 67 | 0.0 | 0.9 | 0.00 | 0.01 | 0.00 | 92 | 1013.8 | |
| 20260504173932 | 67 | 0.0 | 0.0 | 0.00 | 0.01 | 0.00 | 92 | 1013.8 | |
| 20260504172928 | 68 | 0.0 | 0.0 | 0.00 | 0.02 | 0.00 | 92 | 1013.8 | |
| 20260504171929 | 68 | 0.0 | 0.9 | 0.00 | 0.02 | 0.00 | 92 | 1013.8 | |
| 20260504170929 | 68 | 0.0 | 0.0 | 0.00 | 0.02 | 0.00 | 92 | 1013.8 | |
| 20260504151009 | 68 | 0.0 | 0.9 | 0.00 | 0.02 | 0.00 | 92 | 1014.4 | |
| 20260504140931 | 69 | 0.0 | 0.9 | 0.00 | 0.02 | 0.00 | 91 | 1014.9 |